Location: Unspecified
(48.7670°N, 0.0000°E)
Time: 22:12:52
(UTC+00:00)

S-56A Canister/Altair - Pass Details

Date: 25 October 2019
Orbit: 634 x 2498 km, 38.9° (Epoch: 19 November)

Event Time Altitude Azimuth Distance (km) Brightness Sun altitude
Exits shadow 05:33:25 11° 256° (WSW) 2,994 10.0 -10.8°
Maximum altitude 05:39:52 32° 196° (SSW) 2,295 9.9 -9.7°
Drops below altitude 10° 05:49:08 10° 140° (SE) 4,307 12.1 -8.2°
Sets 05:53:38 0° 132° (SE) 5,589 13.0 -7.5°
